FW1662 Weather Reports


time (UTC)temp
C
wind
direction
speed
KPH
gust
KPH
rain 1hr
cm
rain 24hr
cm
rain mn
cm
humidity
%
barometer
mb
20260504194506 20 207 9.7 25.7 0.00 0.00 0.00 52 1010.3
20260504193001 20 163 6.4 30.6 0.00 0.00 0.00 50 1010.4
20260504191605 20 219 9.7 30.6 0.00 0.00 0.00 48 1010.5
20260504190116 20 259 20.9 40.2 0.00 0.00 0.00 47 1010.6
20260504184625 20 215 12.9 30.6 0.00 0.00 0.00 43 1010.6
20260504183056 21 302 6.4 32.2 0.00 0.00 0.00 43 1010.9
20260504181554 20 194 12.9 25.7 0.00 0.00 0.00 43 1010.9
20260504180054 20 162 14.5 27.4 0.00 0.00 0.00 43 1011.0
20260504174550 20 237 12.9 25.7 0.00 0.00 0.00 43 1011.1
20260504173048 20 192 14.5 25.7 0.00 0.00 0.00 43 1011.2
20260504171547 20 264 8.0 20.9 0.00 0.00 0.00 44 1011.6
20260504120119 13 297 3.2 17.7 0.00 0.00 0.00 58 1014.0
20260504081535 9 196 1.6 6.4 0.00 0.00 0.00 59 1013.2
20260504050013 8 197 3.2 8.0 0.00 0.00 0.00 60 1012.5
20260504044512 8 188 3.2 6.4 0.00 0.00 0.00 60 1012.5
20260504043009 8 171 3.2 6.4 0.00 0.00 0.00 61 1012.3
20260504041506 8 188 1.6 4.8 0.00 0.00 0.00 62 1012.4
20260504040004 8 191 1.6 3.2 0.00 0.00 0.00 63 1012.4
20260504034505 8 181 1.6 4.8 0.00 0.00 0.00 63 1012.4
20260504033007 7 159 1.6 3.2 0.00 0.00 0.00 64 1012.3
20260504031505 7 199 1.6 4.8 0.00 0.00 0.00 66 1012.4
20260504030001 8 210 1.6 4.8 0.00 0.00 0.00 64 1012.3
20260504024500 8 204 3.2 4.8 0.00 0.00 0.00 64 1012.3
20260504023100 8 204 1.6 3.2 0.00 0.00 0.00 63 1012.5
20260504021559 8 207 3.2 4.8 0.00 0.00 0.00 62 1012.5
20260504020059 8 205 3.2 6.4 0.00 0.00 0.00 60 1012.4
20260504014559 8 205 3.2 6.4 0.00 0.00 0.00 59 1012.4
20260504013107 9 211 3.2 6.4 0.00 0.00 0.00 58 1012.1
20260504011554 9 203 3.2 4.8 0.00 0.00 0.00 57 1012.0
20260504010055 10 215 1.6 4.8 0.00 0.00 0.00 56 1011.8
20260504004603 10 207 1.6 3.2 0.00 0.00 0.00 52 1011.7
20260504003049 11 219 1.6 3.2 0.00 0.00 0.00 48 1011.5
20260504001549 12 267 0.0 1.6 0.00 0.00 0.00 46 1011.2
20260504000050 12 309 0.0 3.2 0.00 0.00 0.00 42 1011.1
20260503234547 13 319 0.0 6.4 0.00 0.00 0.00 38 1010.9
20260503233047 14 279 0.0 6.4 0.00 0.00 0.00 36 1010.7
20260503231552 15 301 0.0 14.5 0.00 0.00 0.00 35 1010.5
20260503230050 14 320 1.6 16.1 0.00 0.00 0.00 35 1010.4
20260503224545 14 307 4.8 14.5 0.00 0.00 0.00 34 1010.4
20260503223044 14 314 4.8 17.7 0.00 0.00 0.00 35 1010.3
20260503221550 14 322 8.0 22.5 0.00 0.00 0.00 35 1010.2
20260503220044 15 314 4.8 19.3 0.00 0.00 0.00 34 1010.3
20260503214542 15 307 1.6 24.1 0.00 0.00 0.00 36 1010.2
20260503213043 15 325 6.4 24.1 0.00 0.00 0.00 34 1010.1
20260503211542 14 321 6.4 27.4 0.00 0.00 0.00 35 1010.0
20260503210039 15 15 4.8 20.9 0.00 0.00 0.00 37 1010.0
20260503204539 15 349 6.4 19.3 0.00 0.00 0.00 36 1010.2
20260503203039 14 323 8.0 20.9 0.00 0.00 0.00 37 1010.0
20260503201536 14 44 4.8 19.3 0.00 0.00 0.00 38 1010.1
20260503200034 14 6 4.8 17.7 0.00 0.00 0.00 38 1010.2